Location: ????
(33.1659°N, 35.6604°E)
Time: 04:17:21
(UTC+00:00)

Cosmos 1980 - Pass Details

Date: 20 September 2019
Orbit: 841 x 846 km, 71.0° (Epoch: 14 October)

Event Time Altitude Azimuth Distance (km) Brightness Sun altitude
Rises 17:43:31 0° 336° (NNW) 3,399 7.5 -26.6°
Reaches altitude 10° 17:45:58 10° 335° (NNW) 2,461 6.7 -27.1°
Maximum altitude 17:51:35 72° 252° (WSW) 883 3.8 -28.2°
Enters shadow 17:52:08 66° 211° (SSW) 911 3.8 -28.3°
